When you browse on this site, cookies collect data to enhance your experience and personalize the content and advertising you see.
Visit our Privacy Policy to learn more. By continuing to use the site, you agree to this use of cookies and data.
  • In Hungary
  • List of Countries
  • For 7 days
  • Water Temperature
  • Satellite Maps
  • Weather Map
  • News
  • Weather Widgets
  • user-avatar
    Login

    Hourly Weather Revyachka

    Today, 21 May, Tuesday

    Time Temperature Precipitation Wind Pressure Humidity
    00:00 +15°C° 0 mm 2 mps 744 mmHg 79%
    01:00 +14°C° 0 mm 2 mps 744 mmHg 81%
    02:00 +14°C° 0 mm 2 mps 743 mmHg 83%
    03:00 +14°C° 0 mm 2 mps 743 mmHg 83%
    04:00 +14°C° 0 mm 2 mps 744 mmHg 84%
    05:00 +14°C° 0 mm 2 mps 744 mmHg 84%
    06:00 +16°C° 0 mm 3 mps 744 mmHg 77%
    07:00 +18°C° 0 mm 3 mps 744 mmHg 70%
    08:00 +20°C° 0 mm 4 mps 744 mmHg 62%
    09:00 +21°C° 0 mm 4 mps 743 mmHg 57%
    10:00 +22°C° 0 mm 4 mps 743 mmHg 53%
    11:00 +23°C° 0 mm 5 mps 743 mmHg 49%
    12:00 +23°C° 0 mm 5 mps 743 mmHg 47%
    13:00 +25°C° 0 mm 5 mps 742 mmHg 46%
    14:00 +25°C° 0 mm 5 mps 742 mmHg 44%
    15:00 +25°C° 0 mm 4 mps 742 mmHg 48%
    16:00 +24°C° 0 mm 3 mps 741 mmHg 51%
    17:00 +24°C° 0 mm 3 mps 741 mmHg 55%
    18:00 +21°C° 0 mm 3 mps 741 mmHg 61%
    19:00 +19°C° 0 mm 2 mps 741 mmHg 67%
    20:00 +17°C° 0 mm 2 mps 741 mmHg 72%
    21:00 +16°C° 0 mm 2 mps 741 mmHg 77%
    22:00 +15°C° 0 mm 2 mps 740 mmHg 81%
    23:00 +14°C° 0 mm 2 mps 740 mmHg 86%

    Tomorrow, 22 May, Wednesday

    Time Temperature Precipitation Wind Pressure Humidity
    00:00 +14°C° 0 mm 2 mps 740 mmHg 88%
    01:00 +13°C° 0 mm 2 mps 740 mmHg 90%
    02:00 +13°C° 0 mm 2 mps 740 mmHg 93%
    03:00 +13°C° 0 mm 2 mps 739 mmHg 92%
    04:00 +14°C° 0 mm 2 mps 739 mmHg 91%
    05:00 +14°C° 0 mm 2 mps 739 mmHg 90%
    06:00 +15°C° 0.1 mm 2 mps 739 mmHg 88%
    07:00 +16°C° 0.1 mm 2 mps 738 mmHg 86%
    08:00 +17°C° 0.1 mm 2 mps 738 mmHg 84%
    09:00 +18°C° 0 mm 2 mps 738 mmHg 80%
    10:00 +19°C° 0 mm 2 mps 738 mmHg 76%
    11:00 +21°C° 0 mm 2 mps 737 mmHg 71%
    12:00 +21°C° 0.2 mm 2 mps 737 mmHg 68%
    13:00 +23°C° 0.2 mm 2 mps 737 mmHg 65%
    14:00 +24°C° 0.2 mm 2 mps 736 mmHg 62%
    15:00 +24°C° 0.2 mm 2 mps 736 mmHg 62%
    16:00 +24°C° 0.2 mm 2 mps 736 mmHg 62%
    17:00 +24°C° 0.2 mm 2 mps 735 mmHg 62%
    18:00 +22°C° 0.1 mm 1 mps 735 mmHg 69%
    19:00 +20°C° 0.1 mm 1 mps 735 mmHg 76%
    20:00 +18°C° 0.1 mm 1 mps 735 mmHg 82%
    21:00 +18°C° 0.1 mm 1 mps 735 mmHg 85%
    22:00 +16°C° 0.1 mm 1 mps 735 mmHg 87%
    23:00 +15°C° 0.1 mm 1 mps 735 mmHg 89%

    Day after tomorrow, 23 May, Thursday

    Time Temperature Precipitation Wind Pressure Humidity
    00:00 +15°C° 0 mm 1 mps 735 mmHg 89%
    01:00 +15°C° 0 mm 2 mps 735 mmHg 90%
    02:00 +14°C° 0 mm 2 mps 734 mmHg 91%
    03:00 +14°C° 0 mm 2 mps 734 mmHg 91%
    04:00 +15°C° 0 mm 1 mps 734 mmHg 90%
    05:00 +15°C° 0 mm 1 mps 734 mmHg 90%
    06:00 +16°C° 0 mm 2 mps 734 mmHg 84%
    07:00 +18°C° 0 mm 2 mps 734 mmHg 79%
    08:00 +20°C° 0 mm 2 mps 734 mmHg 73%
    09:00 +21°C° 0.5 mm 2 mps 735 mmHg 69%
    10:00 +23°C° 0.5 mm 2 mps 735 mmHg 65%
    11:00 +25°C° 0.5 mm 2 mps 735 mmHg 61%
    12:00 +24°C° 1.4 mm 3 mps 735 mmHg 64%
    13:00 +24°C° 1.4 mm 3 mps 735 mmHg 67%
    14:00 +24°C° 1.4 mm 3 mps 735 mmHg 70%
    15:00 +22°C° 0.7 mm 3 mps 735 mmHg 73%
    16:00 +22°C° 0.7 mm 3 mps 735 mmHg 77%
    17:00 +21°C° 0.7 mm 2 mps 735 mmHg 81%
    18:00 +20°C° 0.4 mm 3 mps 735 mmHg 84%
    19:00 +18°C° 0.4 mm 3 mps 735 mmHg 87%
    20:00 +16°C° 0.4 mm 3 mps 736 mmHg 91%
    21:00 +14°C° 0.2 mm 3 mps 736 mmHg 92%
    22:00 +14°C° 0.2 mm 3 mps 736 mmHg 93%
    23:00 +13°C° 0.2 mm 3 mps 737 mmHg 94%

    24 May, Friday

    Time Temperature Precipitation Wind Pressure Humidity
    00:00 +12°C° 0 mm 3 mps 737 mmHg 93%
    01:00 +12°C° 0 mm 3 mps 737 mmHg 92%
    02:00 +11°C° 0 mm 4 mps 737 mmHg 91%
    03:00 +11°C° 0 mm 4 mps 738 mmHg 91%
    04:00 +10°C° 0 mm 3 mps 738 mmHg 90%
    05:00 +10°C° 0 mm 3 mps 738 mmHg 89%
    06:00 +11°C° 0 mm 4 mps 738 mmHg 85%
    07:00 +13°C° 0 mm 4 mps 738 mmHg 80%
    08:00 +15°C° 0 mm 4 mps 738 mmHg 76%
    09:00 +17°C° 0 mm 4 mps 738 mmHg 72%
    10:00 +19°C° 0 mm 4 mps 738 mmHg 67%
    11:00 +20°C° 0 mm 4 mps 738 mmHg 63%
    12:00 +21°C° 0.1 mm 4 mps 738 mmHg 63%
    13:00 +21°C° 0.1 mm 4 mps 738 mmHg 62%
    14:00 +22°C° 0.1 mm 4 mps 737 mmHg 61%
    15:00 +21°C° 0.6 mm 4 mps 737 mmHg 67%
    16:00 +20°C° 0.6 mm 4 mps 737 mmHg 73%
    17:00 +20°C° 0.6 mm 3 mps 737 mmHg 79%
    18:00 +18°C° 0.3 mm 3 mps 737 mmHg 83%
    19:00 +17°C° 0.3 mm 3 mps 737 mmHg 87%
    20:00 +16°C° 0.3 mm 3 mps 736 mmHg 91%
    21:00 +16°C° 0.3 mm 3 mps 736 mmHg 92%
    22:00 +16°C° 0.3 mm 3 mps 736 mmHg 93%
    23:00 +14°C° 0.3 mm 4 mps 736 mmHg 94%

    25 May, Saturday

    Time Temperature Precipitation Wind Pressure Humidity
    00:00 +14°C° 0.4 mm 4 mps 736 mmHg 94%
    01:00 +13°C° 0.4 mm 4 mps 736 mmHg 95%
    02:00 +13°C° 0.4 mm 4 mps 735 mmHg 95%
    03:00 +13°C° 0 mm 3 mps 735 mmHg 96%
    04:00 +13°C° 0 mm 3 mps 735 mmHg 96%
    05:00 +13°C° 0 mm 3 mps 735 mmHg 96%
    06:00 +14°C° 0 mm 3 mps 734 mmHg 96%
    07:00 +14°C° 0 mm 3 mps 734 mmHg 95%
    08:00 +16°C° 0 mm 3 mps 734 mmHg 94%
    09:00 +17°C° 0.2 mm 3 mps 734 mmHg 92%
    10:00 +18°C° 0.2 mm 3 mps 733 mmHg 89%
    11:00 +18°C° 0.2 mm 3 mps 733 mmHg 87%
    12:00 +20°C° 1.6 mm 3 mps 733 mmHg 82%
    13:00 +21°C° 1.6 mm 3 mps 732 mmHg 77%
    14:00 +22°C° 1.6 mm 3 mps 732 mmHg 72%
    15:00 +21°C° 1.1 mm 3 mps 731 mmHg 76%
    16:00 +21°C° 1.1 mm 3 mps 731 mmHg 80%
    17:00 +20°C° 1.1 mm 2 mps 730 mmHg 84%
    18:00 +19°C° 0.9 mm 2 mps 730 mmHg 86%
    19:00 +18°C° 0.9 mm 2 mps 730 mmHg 87%
    20:00 +16°C° 0.9 mm 1 mps 730 mmHg 89%
    21:00 +16°C° 0 mm 1 mps 730 mmHg 91%
    22:00 +16°C° 0 mm 2 mps 729 mmHg 92%
    23:00 +15°C° 0 mm 2 mps 729 mmHg 94%

    26 May, Sunday

    Time Temperature Precipitation Wind Pressure Humidity
    00:00 +15°C° 0.1 mm 2 mps 729 mmHg 95%
    01:00 +15°C° 0.1 mm 2 mps 729 mmHg 96%
    02:00 +14°C° 0.1 mm 2 mps 729 mmHg 97%
    03:00 +14°C° 0.2 mm 2 mps 729 mmHg 97%
    04:00 +14°C° 0.2 mm 2 mps 729 mmHg 97%
    05:00 +13°C° 0.2 mm 3 mps 729 mmHg 97%
    06:00 +13°C° 0.1 mm 3 mps 729 mmHg 96%
    07:00 +13°C° 0.1 mm 4 mps 729 mmHg 94%
    08:00 +13°C° 0.1 mm 4 mps 729 mmHg 93%
    09:00 +13°C° 0 mm 5 mps 729 mmHg 90%
    10:00 +13°C° 0 mm 5 mps 729 mmHg 86%
    11:00 +13°C° 0 mm 5 mps 729 mmHg 83%
    12:00 +14°C° 0 mm 5 mps 729 mmHg 75%
    13:00 +16°C° 0 mm 6 mps 730 mmHg 67%
    14:00 +17°C° 0 mm 6 mps 730 mmHg 59%
    15:00 +16°C° 0 mm 6 mps 730 mmHg 61%
    16:00 +16°C° 0 mm 5 mps 730 mmHg 63%
    17:00 +16°C° 0 mm 5 mps 730 mmHg 65%
    18:00 +14°C° 0.1 mm 4 mps 730 mmHg 72%
    19:00 +13°C° 0.1 mm 4 mps 730 mmHg 78%
    20:00 +12°C° 0.1 mm 3 mps 730 mmHg 85%
    21:00 +11°C° 0 mm 3 mps 730 mmHg 87%
    22:00 +10°C° 0 mm 3 mps 730 mmHg 90%
    23:00 +9°C° 0 mm 3 mps 730 mmHg 92%
    Show more